Regional Weather Roundup
Issued by NWS

Home | Current Version | Previous Version | Text Only | Print | Product List | Glossary On
Versions: 1 2 3 4 5 6 7 8 9 10 11 12 13 14 15 16 17 18 19 20 21 22 23 24 25 26 27 28 29 30 31 32 33 34 35 36 37 38 39 40 41 42 43 44 45 46 47 48 49 50
000
ASUS43 KMKX 061159
RWRWI

WISCONSIN REGIONAL WEATHER ROUNDUP
NATIONAL WEATHER SERVICE MILWAUKEE/SULLIVAN WI
600 AM CST FRI MAR 06 2015

NOTE: "FAIR" INDICATES FEW OR NO CLOUDS BELOW 12,000 FEET WITH NO
SIGNIFICANT WEATHER AND/OR OBSTRUCTIONS TO VISIBILITY.

WIZ001-002-006>008-014>016-023>028-061300-
NORTHWEST WISCONSIN

CITY           SKY/WX    TMP DP  RH WIND       PRES   REMARKS
SUPERIOR ARPT  CLOUDY    11   3  70 SW10      30.02F WCI  -2
ASHLAND        CLOUDY    10  -1  61 SW16G25   30.03F WCI  -7
6HR MIN TEMP:   5; 6HR MAX TEMP:  10;

HAYWARD        CLOUDY    10   0  63 S12       30.05F WCI  -5
6HR MIN TEMP:   2; 6HR MAX TEMP:  10;

SIREN          CLOUDY    15   3  59 S7        30.07S WCI   5
CUMBERLAND     MOCLDY     3  -4  72 S9        30.08F WCI -11
RICE LAKE      PTCLDY     4  -3  74 SE5       30.12F WCI  -5
6HR MIN TEMP:  -1; 6HR MAX TEMP:   6;

CHETEK         PTCLDY     2  -3  79 E6        30.13F WCI  -9
LADYSMITH      CLOUDY     5  -1  76 S6        30.12F WCI  -6
6HR MIN TEMP:  -1; 6HR MAX TEMP:   5;

EAU CLAIRE     PTCLDY     6  -3  66 S7        30.15F WCI  -6
6HR MIN TEMP:   2; 6HR MAX TEMP:   7;

MENOMONIE      CLEAR     11   0  59 S8        30.15F WCI  -1
NEW RICHMOND   CLEAR     10   1  67 S8        30.11S WCI  -3
OSCEOLA        PTCLDY    11   2  65 S9        30.13F WCI  -1
$$

WIZ003>005-009-010-017-018-061300-
NORTH CENTRAL WISCONSIN

CITY           SKY/WX    TMP DP  RH WIND       PRES   REMARKS
MANITOWISH WTR CLOUDY    -3  -7  82 S7        30.05F WCI -16
ARBOR VITAE    PTCLDY    -1  -5  80 S7        30.07F WCI -14
WOODRUFF       PTCLDY    -1  -5  80 S7        30.07F WCI -14
RHINELANDER    PTCLDY     1  -5  75 SW10      30.09F WCI -15
6HR MIN TEMP:  -2; 6HR MAX TEMP:   1;

EAGLE RIVER    PTCLDY    -1  -6  77 CALM      30.08F
LAND O LAKES   CLEAR     -2  -6  84 SW5       30.07F WCI -12
PHILLIPS       CLOUDY     1  -4  77 S9        30.07F WCI -14
6HR MIN TEMP:  -3; 6HR MAX TEMP:   1;

TOMAHAWK       PTCLDY    -3  -7  84 CALM      30.13F
MEDFORD        CLOUDY     4  -4  71 S10       30.12F WCI -12
MERRILL        PTCLDY    -4  -8  82 SW3       30.16F
$$

WIZ029-030-035-036-043>047-061300-
CENTRAL WISCONSIN

CITY           SKY/WX    TMP DP  RH WIND       PRES   REMARKS
WAUSAU         PTCLDY    -2  -7  79 CALM      30.17F
6HR MIN TEMP:  -3; 6HR MAX TEMP:   2;

MOSINEE        CLEAR     -4  -8  84 S9        30.20F WCI -20
MARSHFIELD     CLOUDY    -1  -7  75 S9        30.17F WCI -16
6HR MIN TEMP:  -6; 6HR MAX TEMP:   1;

STEVENS POINT  MOCLDY    -2  -8  78 S9        30.23F WCI -18
WAUPACA        PTCLDY     0  -6  73 S3        30.29F
WAUTOMA        NOT AVBL
WISC RAPIDS    MOCLDY    -1  -8  72 S7        30.24F WCI -14
6HR MIN TEMP:  -5; 6HR MAX TEMP:   3;

CAMP DOUGLAS   NOT AVBL
$$

WIZ011>013-019>022-031-037>040-048>050-061300-
NORTHEAST WISCONSIN

CITY           SKY/WX    TMP DP  RH WIND       PRES   REMARKS
ANTIGO         MOCLDY    -5  -9  84 S5        30.16F WCI -16
SHAWANO        MOCLDY     1  -6  71 SW3       30.27F
OCONTO         PTCLDY     1  -6  71 SW6       30.29S WCI -11
STURGEON BAY   PTCLDY     1  -8  66 SW12      30.28F WCI -15
6HR MIN TEMP:   1; 6HR MAX TEMP:   7;

GREEN BAY      PTCLDY     1  -6  72 S9        30.30F WCI -14
6HR MIN TEMP:   1; 6HR MAX TEMP:   5;

MANITOWOC      NOT AVBL
APPLETON       MOCLDY     1  -8  66 S9        30.29F WCI -14
CLINTONVILLE   PTCLDY     1  -6  71 S7        30.27F WCI -11
OSHKOSH        PTCLDY     2  -6  69 S10       30.30F WCI -14
6HR MIN TEMP:   0; 6HR MAX TEMP:   6;

$$

WIZ032>034-041-042-053>061-061300-
SOUTHWEST WISCONSIN

CITY           SKY/WX    TMP DP  RH WIND       PRES   REMARKS
LA CROSSE      MOCLDY     7  -2  66 S13       30.24F WCI  -9
6HR MIN TEMP:   4; 6HR MAX TEMP:   8;

SPARTA         CLOUDY     7  -2  68 CALM      30.26F
VIROQUA        CLOUDY     4  -2  75 S9        30.22F WCI -10
BOSCOBEL       CLOUDY    -9 -15  75 CALM      30.32F
6HR MIN TEMP: -11; 6HR MAX TEMP:  -3;

PRAIRIE DU CHI CLOUDY     4  -4  70 E6        30.31F WCI  -7
PLATTEVILLE    MOCLDY     3  -4  75 SE12      30.32F WCI -14
$$

WIZ056-057-062-063-064-067-068-061300-
SOUTH CENTRAL WISCONSIN

CITY           SKY/WX    TMP DP  RH WIND       PRES   REMARKS
REEDSBURG      CLEAR      3  -4  71 S6        30.29F WCI  -8
BARABOO/DELLS  CLEAR      3  -4  71 CALM      30.29F
LONE ROCK      NOT AVBL
MINERAL POINT  PTCLDY     1  -6  71 S7        30.30F WCI -11
MADISON        PTCLDY     2  -5  72 S7        30.35F WCI -11
6HR MIN TEMP:   1; 6HR MAX TEMP:   5;

MIDDLETON      CLEAR      4  -5  68 SW6       30.35S WCI  -7
WATERTOWN      PTCLDY    -2  -7  80 S3        30.36S
MONROE         PTCLDY     1  -4  78 S15       30.33F WCI -18
JANESVILLE     CLEAR      1  -6  71 S6        30.38F WCI -10
$$

WIZ051-052-058>065-066-070>072-061300-
SOUTHEAST WISCONSIN

CITY           SKY/WX    TMP DP  RH WIND       PRES   REMARKS
MILWAUKEE      PTCLDY     0  -8  69 SW8       30.38F WCI -14
6HR MIN TEMP:   0; 6HR MAX TEMP:   5;

WAUKESHA       PTCLDY    -2  -8  78 S5        30.37F WCI -12
MILWAUKEE/TIMM PTCLDY     3  -6  66 SW7       30.38F WCI  -9
RACINE         PTCLDY     1  -7  68 SW8       30.40F WCI -13
6HR MIN TEMP:  -3; 6HR MAX TEMP:   4;

BURLINGTON     PTCLDY   -12 -16  82 SW6       30.38F WCI -25
KENOSHA        FAIR       1  -6  72 SW8       30.39F WCI -13
6HR MIN TEMP:  -2; 6HR MAX TEMP:   3;

FOND DU LAC    PTCLDY     4  -5  66 SW13      30.32F WCI -13
6HR MIN TEMP:   3; 6HR MAX TEMP:   5;

SHEBOYGAN      PTCLDY    -1  -9  68 SW9       30.33F WCI -16
6HR MIN TEMP:  -2; 6HR MAX TEMP:   2;

WEST BEND      PTCLDY     3  -6  66 CALM      30.34F
JUNEAU         PTCLDY     0  -6  74 S12       30.35S WCI -17
$$

LSZ147-162-061300-
LAKE SUPERIOR

STATION/POSITION TIME  TEMP    WIND        PRES    WAVE
                       AIR SEA DIR/SP/G            HT/PER
                 (UTC) (F)     (DEG/KT/KT) (MB)    (FT/S)
DEVILS ISLAND    1100   10     210/  9/ 11 1018.2F
PORT WING        1140   13     200/ 10/ 15 1016.9F
SAXON HARBOR     1100   12     190/ 11/ 22 1016.9F
$$

LMZ867-665-643>646-061300-
LAKE MICHIGAN

STATION/POSITION TIME  TEMP    WIND        PRES    WAVE
                       AIR SEA DIR/SP/G            HT/PER
                 (UTC) (F)     (DEG/KT/KT) (MB)    (FT/S)
NORTHPORT PIER   1100    6     230/  7/ 17 1025.1F
SISTER BAY       1043    6     230/ 13/ 18   N/A
KEWAUNEE LAKESHO 1100    4     240/  2/  7 1025.9F
SHEBOYGAN LAKESH 1100    5     220/  9/ 11 1030.0F
PORT WASHINGTON  1100    4     240/  5/  8 1029.5F
MILWAUKEE LAKESH 1100    5     230/ 12/ 15   N/A
KENOSHA   LAKESH 1100    2     220/  5/ 10 1030.1F
$$

TC  - TEMPERATURE IN CELSIUS
VSB - VISIBILITY IN STATUTE MILES
WCI - WIND CHILL INDEX
HX  - HEAT INDEX




USA.gov is the U.S. government's official web portal to all federal, state and local government web resources and services.